A-M-J;H:Mn;Camp;N�;Longitude;Latitude;Proc;Syn;Euc;Bact
2001-10-03;08:00:00;I;1;357.15;50.01;0;2642;3301;1152033
2001-10-03;13:00:00;I;2;354.99;49.17;0;16649;1630;1260906
2001-10-03;17:00:00;I;3;353.41;48.53;8799;63556;2729;993281
2001-10-03;20:20:00;I;4;351.94;47.94;24991;2110;3688;1065212
2001-10-04;05:00:00;I;5;348.48;46.49;132744;5128;5157;465778
2001-10-04;09:50:00;I;6;347.03;45.87;43410;1202;3226;963984
2001-10-04;13:00:00;I;7;345.52;45.22;73812;3220;3630;363757
2001-10-04;17:02:00;I;8;343.99;44.91;62059;3700;3469;461601
2001-10-04;20:45:00;I;9;342.43;44.80;82420;1439;2226;495075
2001-10-05;06:00:00;I;10;338.72;44.49;98983;2046;2567;700786
2001-10-05;10:00:00;I;11;337.64;44.27;122101;6579;4729;309877
2001-10-05;14:00:00;I;12;336.64;43.96;128610;5041;1428;409190
2001-10-05;18:20:00;I;13;335.30;43.46;68835;3521;2549;604317
2001-10-06;06:20:00;I;14;331.43;42.58;133836;7215;1364;423419
2001-10-06;10:50:00;I;15;329.74;42.39;150601;8406;983;516127
2001-10-06;15:00:00;I;16;327.88;42.27;97127;4787;832;412485
2001-10-06;19:15:00;I;17;326.20;42.20;181819;7741;1364;345399
2001-10-06;23:30:00;I;18;324.33;42.12;129489;4307;873;545650
2001-10-07;08:00:00;I;19;320.72;41.96;110839;3006;497;410741
2001-10-07;11:50:00;I;20;319.09;41.87;131929;3330;838;378423
2001-10-07;16:16:00;I;21;317.10;41.78;100526;13146;2700;360144
2001-10-07;20:25:00;I;22;315.22;41.70;189421;12400;1711;289084
2001-10-07;23:54:00;I;23;313.59;41.62;175697;13649;2070;411998
2001-10-08;08:55:00;I;24;309.73;41.45;73951;16181;2122;571298
2001-10-08;12:54:00;I;25;308.25;41.38;130321;11383;1879;506828
2001-10-08;17:00:00;I;26;306.44;41.29;126275;11435;1486;410330
2001-10-08;21:25:00;I;27;304.48;41.20;64551;13574;1902;410410
2001-10-08;00:51:00;I;28;302.87;41.14;115695;19783;2463;338393
2001-10-09;08:52:00;I;29;299.47;40.97;106012;9111;2769;355436
2001-10-09;13:50:00;I;30;297.43;40.88;118014;9359;2642;422835
2001-10-09;18:30:00;I;31;295.50;40.79;70921;22228;3029;374172
2001-10-09;23:06:00;I;32;293.41;40.69;85738;59753;5463;812509
2001-10-09;03:30:00;I;33;291.40;40.60;0;31183;15782;1136838
2001-10-11;13:00:00;I;34;286.05;38.81;0;28535;5463;1403777
2001-10-11;17:05:00;I;35;285.30;37.53;0;4307;2203;615849
2001-10-12;14:05:00;I;36;285.08;36.04;0;50792;7440;1010787
2001-10-12;18:10:00;I;37;284.91;34.89;93028;4486;1665;294005
2001-10-12;22:10:00;I;38;283.63;34.08;75020;53405;1520;504185
2001-10-12;02:10:00;I;39;282.47;33.35;159550;21777;902;382856
2001-10-14;13:35:00;I;40;279.96;31.23;96393;51555;3035;740017
2001-10-14;17:50:00;I;41;280.83;30.06;111655;5382;613;396874
2001-10-14;22:11:00;I;42;281.75;28.82;64862;8356;541;337085
2001-10-14;01:50:00;I;43;282.50;27.79;54545;6659;331;342106
2001-10-15;10:55:00;I;44;284.35;25.23;27209;10161;301;316638
2001-10-15;14:50:00;I;45;285.13;24.13;25465;5938;403;330999
2001-10-15;19:10:00;I;46;285.36;22.74;22956;9679;439;345268
2001-10-15;23:13:00;I;47;285.57;21.40;49089;6172;553;352391
2001-10-15;03:00:00;I;48;285.97;20.24;84142;8163;481;423607
2001-10-16;11:00:00;I;49;284.16;18.14;125784;5228;397;409185
2001-10-17;11:00:00;I;50;283.47;15.53;182566;2888;578;424334
2001-10-17;15:00:00;I;51;283.75;14.17;167196;4006;403;409105
2001-10-17;19:30:00;I;52;283.95;12.68;60428;8994;415;439493
2001-10-18;14:50:00;I;53;282.88;10.10;77946;27197;806;635776
2001-10-20;10:45:00;I;54;278.05;6.14;287812;23215;3718;725989
2001-10-20;14:50:00;I;55;276.65;5.80;103477;105835;7688;960718
2001-10-20;18:10:00;I;56;275.58;5.42;71780;68616;7748;1012368
2001-10-20;21:42:00;I;57;274.47;5.03;93509;104373;8747;985710
2001-10-21;11:41:00;I;58;270.11;3.47;100602;44601;7249;729170
2001-10-21;15:40:00;I;59;268.85;3.02;127294;40576;6010;826531
2001-10-21;19:45:00;I;60;267.54;2.55;123630;33460;4530;668484
2001-10-21;23:54:00;I;61;266.20;2.08;129471;41521;6527;662248
2001-10-22;03:47:00;I;62;264.93;1.62;187012;79366;6274;1003761
2001-10-22;12:45:00;I;63;261.94;0.55;48108;35541;12609;701498
2001-10-22;16:45:00;I;64;260.62;0.08;10407;5920;10582;334151
2001-10-22;20:45:00;I;65;259.35;-0.38;120273;59574;11231;973299
2001-10-23;01:00:00;I;66;257.99;-0.86;105005;51874;12808;977211
2001-10-23;04:57:00;I;67;256.78;-1.30;119942;49137;7423;970909
2001-10-23;12:50:00;I;68;254.35;-2.17;64188;9258;8933;836600
2001-10-23;16:57:00;I;69;253.07;-2.63;29989;6437;8663;806486
2001-10-23;20:49:00;I;70;251.84;-3.06;45972;4313;5498;791843
2001-10-24;01:00:00;I;71;250.56;-3.53;174451;10293;10185;749681
2001-10-24;04:59:00;I;72;249.36;-3.95;86266;19539;6160;663182
2001-10-24;13:45:00;I;73;246.64;-4.92;125886;10046;8518;562324
2001-10-24;17:50:00;I;74;245.41;-5.36;80112;7165;5865;553011
2001-10-24;21:55:00;I;75;244.13;-5.82;61445;6058;4085;592617
2001-10-25;02:00:00;I;76;242.82;-6.29;80605;6936;4067;510917
2001-10-25;06:00:00;I;77;241.61;-6.71;111881;6912;6317;535516
2001-10-25;13:45:00;I;78;239.17;-7.59;138916;10022;5661;559073
2001-10-25;17:53:00;I;79;237.85;-7.99;76526;7129;3212;445279
2001-10-25;21:50:00;I;80;236.67;-8.46;79318;6972;4043;518277
2001-10-26;01:57:00;I;81;235.40;-8.91;85971;7796;4067;586229
2001-10-26;05:54:00;I;82;234.19;-9.35;77375;6473;3080;421324
2001-10-26;15:00:00;I;83;231.42;-10.32;92342;7622;3946;436680
2001-10-26;18:51:00;I;84;230.31;-10.73;60964;5811;2767;444478
2001-10-26;22:55:00;I;85;229.03;-11.16;105775;9697;3038;580660
2001-10-27;03:00:00;I;86;227.79;-11.60;72959;6551;2605;481300
2001-10-27;06:50:00;I;87;226.61;-12.01;83252;6641;2984;428696
2001-10-27;14:45:00;I;88;224.18;-12.86;62155;5553;2352;558310
2001-10-27;18:55:00;I;89;222.90;-13.31;119359;11129;2352;610058
2001-10-27;22:55:00;I;90;221.66;-13.74;63773;8921;1666;512765
2001-10-28;03:05:00;I;91;220.33;-14.28;125266;28948;2130;649576
2001-10-28;07:00:00;I;92;219.12;-14.69;131318;15142;1576;393603
2001-10-28;15:45:00;I;93;216.41;-15.86;90591;7995;1293;448762
2001-10-28;20:00:00;I;94;215.18;-16.39;87806;1083;800;379426
2001-10-29;00:05:00;I;95;214.17;-16.74;77345;193;343;355778
2001-10-29;06:00:00;I;96;212.51;-16.80;117229;289;307;314829
2001-10-31;04:05:00;I;97;209.50;-18.06;139409;776;379;353966
2001-10-31;08:25:00;I;98;208.48;-18.65;95801;355;409;365201
2001-10-31;15:30:00;I;99;206.50;-19.80;98111;391;451;382133
2001-10-31;19:50:00;I;100;205.21;-20.54;64122;475;409;329451
2001-10-31;23:45:00;I;101;204.08;-21.19;65397;126;277;346156
2001-11-01;04:15:00;I;102;202.76;-21.94;55399;187;387;330366
2001-11-01;08:37:00;I;103;201.48;-22.67;76510;287;422;343088
2001-11-01;15:52:00;I;104;199.34;-23.88;85000;715;457;308967
2001-11-01;20:10:00;I;105;198.09;-24.59;54843;299;387;300362
2001-11-02;00:06:00;I;106;196.88;-25.26;62583;117;451;375075
2001-11-02;04:00:00;I;107;195.72;-25.90;68003;1148;492;374426
2001-11-02;10:10:00;I;108;193.87;-26.92;81989;1494;568;438516
2001-11-02;16:50:00;I;109;191.76;-28.07;28757;1154;732;377079
2001-11-02;23:17:00;I;110;189.76;-29.14;38484;1570;697;409348
2001-11-03;05:05:00;I;111;187.94;-30.11;34558;1225;475;374945
2001-11-03;10:55:00;I;112;186.14;-31.07;35572;586;562;424878
2001-11-03;16:55:00;I;113;184.25;-32.06;114566;1957;1266;678218
2001-11-03;23:05:00;I;114;182.32;-33.05;68284;1266;539;475604
2001-11-04;04:58:00;I;115;180.43;-34.02;14607;8555;1225;765164
2001-11-04;11:54:00;I;116;178.19;-35.14;52558;47870;2221;1115660
2001-11-04;17:00:00;I;117;176.50;-35.99;10342;8455;9346;1127119
2001-11-05;23:30:00;I;118;173.89;-34.37;21750;4957;3211;370285
2001-11-06;05:00:00;I;119;172.90;-32.87;129900;17191;1453;819430
2001-11-06;11:03:00;I;120;171.82;-31.24;48896;24972;2572;864630
2001-11-06;18:00:00;I;121;170.58;-29.35;134370;2408;738;447018
2001-11-07;00:22:00;I;122;169.56;-27.71;107230;1090;850;511066
2001-11-07;06:07:00;I;123;168.86;-25.96;113799;410;510;367787
2001-11-07;11:25:00;I;124;168.37;-24.38;110119;311;492;524148
